Погода в Вологде

Хотите узнать прогноз погоды в Вологде? Тогда Вам сюда: Погода в Вологде

Поиск расширенной информации на нашем сайте:

Полезная информация:

Новости сайта



02.01.2020
Опубликован Долгосрочный прогноз погоды по городам России и ближнего зарубежья на январь 2020 года.
Карты: Прогноз на январь и февраль 2020 года, Сравнение прогнозируемой аномалии приземной температуры воздуха на январь 2020 года по разным моделям.




Погода в Вологде - сегодня

Время (UTC), дата Ветер
(°,м/с) 
Видим.   Явления Облачность Т
(°С)
Тd
(°С)
f(%) Тe
(°С)
Pmin
(гПа)
dP
(гПа)
Po
(мм)
O2
(г/м3)
Тmin Tmax R s Состояние
почвы
12 16.04.21 060 (СВ) 4{11}  20000 м    1/0 верхняя 
[Ci fib]
+13.6 -12.9 15 +13  1029.5  -0.7  760  293           
15 16.04.21 050 (СВ) 5{10}  20000 м    ясно 
+12.8 -13.2 15 +12  1028.8  -0.8  760  294    +13.9       
18 16.04.21 030 (СВ) 20000 м    ясно 
+5.8 -8 36 +5  1029.9  0.7  760  301           
21 16.04.21 050 (СВ) 20000 м    ясно 
+5.9 -10.1 31 +5  1030.8  0.9  761  301           
00 17.04.21 060 (СВ) 20000 м    ясно 
+3.6 -9.8 37 +3  1031.4  0.5  761  304           
03 17.04.21 050 (СВ) 20000 м    ясно 
+1.9 -8.1 47 +1  1031.5  0.1  761  305  -0.1        влажная 
06 17.04.21 080 (В) 20000 м    ясно 
+10.3 -9.4 24 +10  1031.2  0.1  761  297           
09 17.04.21 110 (В) 20000 м    ясно 
+12.8 -9.7 20 +13  1030.6  -0.5  761  294           
12 17.04.21 070 (В) 20000 м    1/0 верхняя 
[Ci fib]
+14 -10.1 18 +15  1029.1  -1.4  760  292           
15 17.04.21 040 (СВ) 20000 м    1/0 верхняя 
[Ci fib]
+13.6 -9.6 19 +13  1027.8  -1.3  759  292    +14.7       
18 17.04.21 030 (СВ) 20000 м    1/0 верхняя 
[Ci fib]
+6.1 -6.6 40 +5  1027.9  -0.2  759  300           
21 17.04.21 010 (С) 20000 м    ясно 
+4 -6.7 46 +3  1028.1  0.1  759  302           
00 18.04.21 350 (С) 20000 м    ясно 
-1 -5.1 74 -2  1028.5  759  308           
03 18.04.21 010 (С) 20000 м    8/3 2000 м средняя, верхняя 
[Ac trans|Ci fib]
-1 -4.2 79 -2  1028.8  0.3  759  308  -2.1        замёрзшая 
06 18.04.21 050 (СВ) 20000 м    8/0 верхняя 
[Ci fib]
+9.4 -5.3 35 +9  1028.7  0.4  759  296           
09 18.04.21 040 (СВ) 20000 м    10/0 верхняя 
[Ci]
+11.7 -4.7 31 +11  1028.4  -0.1  759  294           
12 18.04.21 050 (СВ) 6{11}  20000 м    10/3 1000 м верхняя 
[Cu hum|Ci fib]
+13 -3.1 32 +12  1027.7  -0.6  759  292           
15 18.04.21 070 (В) 5{10}  20000 м    10/0 верхняя 
[Ci fib]
+10.3 -4.8 34 +9  1028.1  0.3  759  295    +13.4       
18 18.04.21 060 (СВ) 20000 м    10/0 верхняя 
[Ci fib]
+6 -6.7 40 +6  1029.6  1.2  760  300           
21 18.04.21 060 (СВ) 20000 м    ясно 
+3.1 -9.8 38 +2  1030.7  0.9  761  304           
00 19.04.21 060 (СВ) 20000 м    ясно 
+0.8 -10 44 -1  1031.4  0.5  761  307           
03 19.04.21 070 (В) 20000 м    ясно 
+0 -9.5 49 -2  1032  0.6  762  308  -0.5        замёрзшая 
06 19.04.21 070 (В) 20000 м    ясно 
+5.1 -10.3 32 +3  1032  0.3  762  302           
09 19.04.21 090 (В) 5{10}  20000 м    ясно 
+7.3 -11 26 +6  1031.7  -0.2  762  300           
12 19.04.21 080 (В) 5{12}  20000 м    1/0 верхняя 
[Ci fib]
+9.2 -12.2 21 +8  1030.6  -1  761  298           
Время (UTC), дата Ветер
(°,м/с) 
Видим.   Явления Облачность Т
(°С)
Тd
(°С)
f(%) Тe
(°С)
Pmin
(гПа)
dP
(гПа)
Po
(мм)
O2
(г/м3)
Тmin Tmax R s Состояние
почвы

Для получения пояснительной информации подведите курсор к названию столбца.

ПОГОДА в Вологде - архив

Всё, что Вы хотите узнать о погоде в Вологде - удобно и подробно!

Выберите нужную дату (начиная с 1 января 2019* года) и нажмите кнопку "Найти".
Будут отображены архивные сводки погоды по пункту Вологда, начиная с указанной даты.


Отображать данные в формате CSV (для использования в таблицах Excel)


Внимание! Наш архив погоды предназначен исключительно для личного некоммерческого использования в познавательных целях. Если Вам необходимы официальные справки о состоянии погоды (для производственных, юридических, коммерческих и т.п. целей), обращайтесь в органы Росгидромета.

*Примечание: данная дата относится к архиву по метеостанциям СССР (Россия, СНГ, Балтия).
Архив по метеостанциям Зарубежной Европы и Азии (кроме Китая) хранится 10 дней, по другим регионам земного шара (Китай, Африка, Америка, Австралия, Океания) - 1 день.

Вологда - район местоположения метеостанции


Название, широта, долгота, высота метеостанции:
Вологда (город) 59.3°ш. 39.9°д. 130 м над ур. моря [Российская Федерация]

Дополнительная информация

В oтличие oт бoльшинства пoгoдных сайтoв мы публикуем пoдрoбную метеoинфoрмацию в детальнoм прoфессиoнальнoм фoрмате.

Характеристики температуры и влажнoсти вoздуха измеряются на высoте 2 м в тени вдали oт зданий и деревьев.
Скoрoсть ветра измеряется на высoте 10 м (на урoвне рoста челoвека скoрoсть ветра ниже в 1.5-2 раза). Если метеoстанция нахoдится в гoрoде или в лесу, тo скoрoсть ветра занижена на 2-4 м/с пo сравнению с oткрытым местoм. Скoрoсть ветра над акватoриями крупных рек и oзёр, а также на вершинах хoлмoв на 2-5 м/с выше, чем в oбычных услoвиях.
Атмoсфернoе давление в разных тoчках местнoсти мoжет значительнo oтличаться oт давления на метеoстанции, в зависимoсти oт услoвий рельефа (при пoдъёме на 10 м давление пoнижается примернo на 1 мм рт.ст.).